www.pogodaiklimat.ru

Погода и климат >> Архив погоды >> Кот-д'Ивуар >> Бондуку


ПОГОДА в Бондуку

  • Прогноз погоды в Бондуку
  • Монитор погоды в Бондуку

АРХИВ ПОГОДЫ в Бондуку

Время (UTC), дата Ветер
(напр.,м/с)
 
Видим.   Явления Облачность Т
(С)
Тd
(С)
f
(%)
Тe
(С)
Тes
(С)
Комфортность P
(гПа)
Po
(гПа)
Тmin
(С)
Tmax
(С)
R
(мм)
R24
(мм)
S
(см)
18 16.08 штиль 0 10 км 5/0 <50 м
[Ci sp]
+27.9 +21.8 69 +36 +36 очень
душно
1010.0 969.2 +29.0 0.0
21 16.08 штиль 0 10 км 3/0
[Ci sp]
+25.5 +22.0 81 +33 +33 очень
душно
1011.7 970.5
00 17.08 штиль 0 10 км 3/0
[Ci sp]
+24.0 +21.9 88 +31 +31 очень
душно
1012.9 971.5
06 17.08 штиль 0 8000 м 10/10 400 м
[Sc]
+22.0 +21.6 98 +29 +29 очень
душно
1012.7 970.5 +22.0
09 17.08 штиль 0 8000 м слаб. дождь 10/10 180 м
[Sc]
+22.5 +21.3 93 +30 +30 очень
душно
1015.1 973.4
12 17.08 штиль 0 10 км {дождь} 5/5 400 м
[Cu med, cong]
+27.0 +21.9 74 +35 +50 очень
душно
1012.7 971.7 2
15 17.08 ЮЗ 2 10 км 9/9 450 м
[Cu med, cong]
+30.4 +21.4 59 +38 +40 очень
душно
1009.1 968.7
18 17.08 штиль 0 10 км 4/4 450 м
[Cu med, cong]
+28.9 +20.6 61 +36 +36 очень
душно
1008.6 968.0 +30.6 2
21 17.08 штиль 0 10 км 3/3 400 м
[Cu med, cong]
+24.9 +22.1 84 +32 +32 очень
душно
1011.3 970.1
00 18.08 штиль 0 10 км ясно +23.5 +21.6 89 +30 +30 очень
душно
1012.1 970.6
03 18.08 штиль 0 8000 м 6/6 400 м
[Sc]
+22.5 +21.8 96 +30 +30 очень
душно
1011.1 969.5
06 18.08 Ю 2 8000 м 10/10 180 м
[Sc]
+22.9 +21.9 94 +31 +31 очень
душно
1012.0 970.5 +22.0 2
09 18.08 ЮЗ 1 6000 м слаб. дождь {морось} 10/10 400 м
[Cu med, cong]
+23.0 +22.3 96 +31 +31 очень
душно
1014.1 972.5
12 18.08 ЮЗ 1 10 км {дождь, морось} 9/9 450 м
[Cu med, cong]
+25.0 +22.7 87 +33 +36 очень
душно
1012.9 971.6 1
15 18.08 З 3 10 км в посл. час дождь 8/8 450 м
[Cu med, cong]
+28.0 +22.8 73 +37 +39 очень
душно
1009.7 969.0
18 18.08 Ю 1 10 км {дождь} 5/4 450 м
[Cu med, cong Ci sp]
+27.7 +22.5 73 +36 +36 очень
душно
1008.7 968.0 +29.7 3
03 19.08 Ю 2 8000 м {дождь} 8/8 400 м
[Sc Ac As]
+23.5 +22.0 91 +30 +30 очень
душно
1010.9 969.5
06 19.08 ЮЗ 1 6000 м {дождь} 9/9 180 м
[Sc]
+22.5 +21.8 96 +30 +30 очень
душно
1012.3 970.7 +22.2 4
09 19.08 0 6000 м морось 10/10 180 м
[Sc]
+22.6 +21.1 91
12 19.08 0 8000 м {морось} 10/10 400 м
[Cu med, cong]
+25.0 +21.3 80 0.1
15 19.08 штиль 0 10 км 8/8 400 м
[Cu med, cong]
+27.5 +21.6 70 +35 +38 очень
душно
1011.7 970.8
18 19.08 штиль 0 10 км 8/0
[Ac As]
+26.8 +22.0 75 +35 +35 очень
душно
1009.7 968.8 +29.0 0.1
21 19.08 штиль 0 10 км 8/0
[Ac As]
+24.5 +22.3 88 +32 +32 очень
душно
1011.5 970.2
00 20.08 ЮЗ 1 10 км 6/3 400 м
[Sc Ac trans]
+24.1 +22.0 88 +31 +31 очень
душно
1012.2 970.8
03 20.08 ЮЗ 2 10 км 8/8 400 м
[Sc]
+23.0 +20.8 87 +30 +30 очень
душно
1011.1 969.6
06 20.08 ЮЗ 2 10 км 10/10 400 м
[Sc]
+22.0 +20.0 88 +28 +28 душно 1011.7 970.0 +21.5 0.1
09 20.08 штиль 0 10 км 10/10 400 м
[Sc]
+24.0 +20.7 82 +30 +30 очень
душно
1012.4 971.2
12 20.08 штиль 0 10 км 10/10 400 м
[Cu med, cong]
+26.2 +21.5 75 +33 +33 очень
душно
1012.9 971.8
15 20.08 0 10 км 10/10 400 м
[Cu med, cong]
+26.9 +22.1 75
18 20.08 10 км н/о +26.0 +22.4 81 +34 +34 очень
душно
1010.5 969.5 +27.5
21 20.08 штиль 0 10 км ясно +24.0 +22.5 91 +31 +31 очень
душно
1011.6 970.2
00 21.08 штиль 0 10 км 9/9 400 м
[Sc]
+24.2 +22.4 90 +32 +32 очень
душно
1013.6 972.2
03 21.08 З 1 10 км 9/9 400 м
[Sc]
+23.5 +22.0 91 +30 +30 очень
душно
1013.0 971.5
06 21.08 штиль 0 10 км 10/10 400 м
[Sc]
+22.8 +21.3 91 +30 +30 очень
душно
1012.7 971.1 +22.2
09 21.08 0 6000 м морось 10/10 180 м
[Sc]
+24.2 +21.5 85
12 21.08 0 10 км {морось} 6/6 450 м
[Cu med, cong]
+27.9 +21.5 68 0.1
15 21.08 штиль 0 10 км слаб. дождь 9/8 400 м
[Cu med, cong Ac As]
+27.2 +23.0 78 +36 +39 очень
душно
1010.7 969.8
18 21.08 штиль 0 10 км {дождь} 9/5 400 м
[Cu med, cong Ac trans Ci sp]
+27.9 +22.4 72 +37 +37 очень
душно
1010.5 969.7 +30.0 0.3
21 21.08 штиль 0 10 км 6/6 400 м
[Sc]
+25.8 +22.8 84 +34 +34 очень
душно
1012.2 971.1
00 22.08 ЮЗ 1 10 км 8/8 400 м
[Sc]
+24.0 +21.8 88 +31 +31 очень
душно
1012.8 971.4
03 22.08 ЮВ 2 10 км 10/10 400 м
[Sc]
+23.0 +21.1 89 +31 +31 очень
душно
1013.0 971.4
06 22.08 ЮЗ 1 4000 м дымка 10/10 180 м
[Sc]
+22.4 +21.1 92 +29 +29 очень
душно
1013.4 971.7 +21.9 0.3
09 22.08 0 8000 м 5/5 400 м
[Sc Ci sp]
+24.1 +21.1 83
12 22.08 0 16 км н/о +28.5 +20.3 61
15 22.08 ЮЗ 2 10 км 9/8 450 м
[Cu med, cong Ac As]
+30.2 +19.9 54 +36 +38 очень
душно
1010.9 970.3
18 22.08 ЮЗ 3 10 км 9/4 450 м
[Cb cap Ci ing]
+25.4 +21.3 78 +32 +32 очень
душно
1012.1 970.9 +30.9
21 22.08 штиль 0 10 км 1/0
[Ci sp]
+24.4 +21.7 85 +31 +31 очень
душно
1012.7 971.3
00 23.08 штиль 0 10 км ясно +23.8 +22.0 90 +31 +31 очень
душно
1013.8 972.3
06 23.08 штиль 0 6000 м 10/10 180 м
[Sc]
+23.0 +22.0 94 +31 +31 очень
душно
1014.0 972.4 +22.5
09 23.08 ЮЗ 3 6000 м 10/10 400 м
[Sc]
+23.8 +21.7 88 +30 +30 очень
душно
1014.8 973.3
12 23.08 З 2 10 км {морось} 9/9 400 м
[Cu med, cong]
+26.0 +22.2 80 +34 +36 очень
душно
1014.1 972.9 0.0
15 23.08 З 3 10 км 6/6 450 м
[Cu med, cong]
+29.7 +22.2 64 +39 +43 очень
душно
1010.4 969.8

 

Местоположение метеостанции Бондуку (Кот-д'Ивуар): широта 8.05 долгота -2.78 высота над уровнем моря 370 м.

В архиве по умолчанию представлена погода в Бондуку за последнюю неделю. Архивные данные за месяц целиком и за предыдущие месяцы, начиная с января 2011 года, Вы можете получить, выбрав интересующий диапазон дат из раскрывающегося списка и нажав кнопку "Ввод!".


*Определитесь, кто Вы:
робот инопланетянин человек

Внимание! Время в таблицах - всемирное. Для получения местного времени необходимо прибавить поправку, которая равна 0 ч.

Смотрите также архив погоды в соседних городах и на ближайших метеорологических станциях:

Погода в Уэнчи (Гана) (82 км)
Погода в Суняни (Гана) (94 км)
Погода в Боле (Гана) (114 км)
Погода в Кумаси (Гана) (197 км)
Погода в Сефви Беквай (Гана) (212 км)
Погода в Ва (Гана) (225 км)
Погода в Буаке (Кот-д'Ивуар) (256 км)
Погода в Гауа (Буркина-Фасо) (257 км)
Погода в Димбокро (Кот-д'Ивуар) (263 км)
Погода в Тамале (Гана) (266 км)

Пояснения к столбцам:

Ветер - указаны скорость ветра в м/с - средняя за 10 мин, порывы в срок и между сроками (в фигурных скобках) и направление, откуда дует ветер: С - северный, СВ - северо-восточный, В - восточный, ЮВ - юго-восточный, Ю - южный, ЮЗ - юго-западный, З - западный, СЗ - северо-западный.
Видимость - горизонтальная дальность видимости в метрах или километрах. При видимости от 1 до 10 км при отсутствии осадков обычно наблюдается дымка, при ухудшении видимости до 1 км и менее - туман. В сухую погоду видимость может ухудшаться дымом, пылью или мглою.
Явления - указаны атмосферные явления, наблюдавшиеся в срок или в последний час перед сроком; фигурными скобками обозначены явления, наблюдавшиеся между сроками (за 1-3 часа до срока); квадратными скобками обозначены град или гололедные отложения с указанием их диаметра в мм.
Облачность - указаны через наклонную черту общая и нижняя облачность в баллах и высота нижней границы облаков в метрах; квадратными скобками обозначены формы облаков: Ci - перистые, Cs - перисто-слоистые, Cc - перисто-кучевые, Ac - высококучевые, As - высокослоистые, Sc - слоисто-кучевые, Ns - слоисто-дождевые, Cu - кучевые, Cb - кучево-дождевые. Подробнее классификацию облаков см. в Атласе облаков (PDF).
T - Температура воздуха - температура, измеренная на высоте 2 м над землей.
Td - Температура точки росы - температура, при понижении до которой содержащийся в воздухе водяной пар достигнет насыщения.
f - Относительная влажность воздуха - влажноcть воздуха, измеренная на высоте 2 м над землей.
Te - Эффективная температура - температура, которую ощущает одетый по сезону человек в тени. Характеристика душности погоды. При расчете учитывается влияние влажности воздуха и скорости ветра на теплоощущения человека.
Tes - Эффективная температура на солнце - температура, которую ощущает человек, с поправкой на солнечный нагрев. Характеристика знойности погоды. Зависит от высоты солнца над горизонтом, облачности и скорости ветра. Ночью, в пасмурную погоду, а также при ветре 12 м/с и более поправка равна нулю.
P - Атмосферное давление - приведенное к уровню моря атмосферное давление.
Po - Атмосферное давление - измеренное на уровне метеостанции атмосферное давление.
Tmin - Минимальная температура - минимум температуры воздуха на высоте 2 м над землей.
Tmax - Максимальная температура - максимум температуры воздуха на высоте 2 м над землей.
R - Количество осадков - Количество выпавших осадков за период времени, мм. При наведении курсора мыши на число - период времени, за который выпало указанное количество осадков.
R24 - Количество осадков - Количество выпавших осадков за 24 часа, мм.
S - Снежный покров - Высота снежного покрова, см. При наведении курсора мыши на число - состояние снежного покрова и степень покрытия местности в баллах.